• In Belarus
  • List of Countries
  • For 7 days
  • Water Temperature
  • Weather Map
  • Weather Widgets
  • user-avatar
    Login

    Hourly Weather Pinsk

    Today, 2 April, Thursday

    Time Temperature Precipitation Wind Pressure Humidity
    00:00 -2°C° 0 mm 4 mps 747 mmHg 72%
    01:00 -2°C° 0 mm 4 mps 747 mmHg 72%
    02:00 -2°C° 0 mm 4 mps 747 mmHg 73%
    03:00 -2°C° 0 mm 4 mps 746 mmHg 72%
    04:00 -3°C° 0 mm 4 mps 746 mmHg 71%
    05:00 -4°C° 0 mm 5 mps 746 mmHg 71%
    06:00 -2°C° 0 mm 5 mps 746 mmHg 65%
    07:00 -2°C° 0 mm 6 mps 746 mmHg 60%
    08:00 +1°C° 0 mm 6 mps 746 mmHg 54%
    09:00 +2°C° 0 mm 6 mps 746 mmHg 52%
    10:00 +4°C° 0 mm 6 mps 745 mmHg 50%
    11:00 +5°C° 0 mm 7 mps 745 mmHg 48%
    12:00 +6°C° 0 mm 7 mps 745 mmHg 48%
    13:00 +6°C° 0 mm 7 mps 745 mmHg 48%
    14:00 +7°C° 0 mm 6 mps 745 mmHg 48%
    15:00 +7°C° 0 mm 6 mps 744 mmHg 51%
    16:00 +7°C° 0 mm 6 mps 744 mmHg 53%
    17:00 +7°C° 0 mm 5 mps 744 mmHg 55%
    18:00 +5°C° 0 mm 4 mps 744 mmHg 61%
    19:00 +4°C° 0 mm 4 mps 744 mmHg 66%
    20:00 +3°C° 0 mm 3 mps 744 mmHg 72%
    21:00 +2°C° 0 mm 3 mps 743 mmHg 74%
    22:00 +2°C° 0 mm 3 mps 743 mmHg 76%
    23:00 +1°C° 0 mm 3 mps 743 mmHg 77%

    Tomorrow, 3 April, Friday

    Time Temperature Precipitation Wind Pressure Humidity
    00:00 0°C° 0 mm 4 mps 743 mmHg 77%
    01:00 0°C° 0 mm 4 mps 743 mmHg 76%
    02:00 0°C° 0 mm 4 mps 742 mmHg 76%
    03:00 0°C° 0 mm 5 mps 742 mmHg 73%
    04:00 0°C° 0 mm 5 mps 742 mmHg 70%
    05:00 -1°C° 0 mm 6 mps 741 mmHg 68%
    06:00 +1°C° 0 mm 6 mps 741 mmHg 65%
    07:00 +2°C° 0 mm 6 mps 741 mmHg 62%
    08:00 +2°C° 0 mm 7 mps 741 mmHg 59%
    09:00 +4°C° 0 mm 7 mps 741 mmHg 56%
    10:00 +5°C° 0 mm 7 mps 741 mmHg 53%
    11:00 +7°C° 0 mm 8 mps 741 mmHg 50%
    12:00 +7°C° 0 mm 8 mps 742 mmHg 51%
    13:00 +7°C° 0 mm 8 mps 742 mmHg 52%
    14:00 +9°C° 0 mm 8 mps 742 mmHg 54%
    15:00 +7°C° 0.1 mm 8 mps 743 mmHg 54%
    16:00 +8°C° 0.1 mm 7 mps 743 mmHg 54%
    17:00 +6°C° 0.1 mm 7 mps 743 mmHg 54%
    18:00 +5°C° 0 mm 6 mps 744 mmHg 56%
    19:00 +5°C° 0 mm 5 mps 745 mmHg 58%
    20:00 +4°C° 0 mm 4 mps 745 mmHg 61%
    21:00 +3°C° 0 mm 4 mps 746 mmHg 63%
    22:00 +3°C° 0 mm 4 mps 746 mmHg 65%
    23:00 +1°C° 0 mm 4 mps 747 mmHg 67%

    Day after tomorrow, 4 April, Saturday

    Time Temperature Precipitation Wind Pressure Humidity
    00:00 +1°C° 0 mm 3 mps 748 mmHg 70%
    01:00 +1°C° 0 mm 3 mps 748 mmHg 74%
    02:00 0°C° 0 mm 3 mps 749 mmHg 78%
    03:00 0°C° 0 mm 3 mps 749 mmHg 78%
    04:00 -1°C° 0 mm 3 mps 750 mmHg 78%
    05:00 -1°C° 0 mm 3 mps 751 mmHg 78%
    06:00 0°C° 0 mm 3 mps 751 mmHg 72%
    07:00 0°C° 0 mm 4 mps 752 mmHg 66%
    08:00 +1°C° 0 mm 4 mps 752 mmHg 60%
    09:00 +2°C° 0 mm 5 mps 753 mmHg 55%
    10:00 +5°C° 0 mm 5 mps 753 mmHg 51%
    11:00 +5°C° 0 mm 6 mps 753 mmHg 46%
    12:00 +5°C° 0 mm 6 mps 754 mmHg 42%
    13:00 +7°C° 0 mm 6 mps 754 mmHg 38%
    14:00 +8°C° 0 mm 6 mps 754 mmHg 35%
    15:00 +7°C° 0 mm 6 mps 755 mmHg 35%
    16:00 +7°C° 0 mm 6 mps 755 mmHg 36%
    17:00 +7°C° 0 mm 6 mps 755 mmHg 36%
    18:00 +6°C° 0 mm 5 mps 756 mmHg 43%
    19:00 +4°C° 0 mm 4 mps 756 mmHg 50%
    20:00 +3°C° 0 mm 3 mps 757 mmHg 57%
    21:00 +2°C° 0 mm 3 mps 758 mmHg 60%
    22:00 +1°C° 0 mm 3 mps 758 mmHg 63%
    23:00 +1°C° 0 mm 3 mps 759 mmHg 67%

    5 April, Sunday

    Time Temperature Precipitation Wind Pressure Humidity
    00:00 0°C° 0 mm 3 mps 760 mmHg 70%
    01:00 0°C° 0 mm 3 mps 760 mmHg 74%
    02:00 -1°C° 0 mm 3 mps 761 mmHg 77%
    03:00 -2°C° 0 mm 3 mps 761 mmHg 78%
    04:00 -2°C° 0 mm 2 mps 762 mmHg 79%
    05:00 -3°C° 0 mm 2 mps 762 mmHg 80%
    06:00 -1°C° 0 mm 2 mps 763 mmHg 71%
    07:00 +1°C° 0 mm 2 mps 763 mmHg 62%
    08:00 +1°C° 0 mm 3 mps 764 mmHg 54%
    09:00 +2°C° 0 mm 3 mps 764 mmHg 47%
    10:00 +4°C° 0 mm 3 mps 764 mmHg 40%
    11:00 +5°C° 0 mm 3 mps 765 mmHg 33%
    12:00 +7°C° 0 mm 2 mps 765 mmHg 31%
    13:00 +7°C° 0 mm 2 mps 765 mmHg 30%
    14:00 +8°C° 0 mm 2 mps 764 mmHg 28%
    15:00 +9°C° 0 mm 1 mps 764 mmHg 29%
    16:00 +9°C° 0 mm 1 mps 764 mmHg 29%
    17:00 +9°C° 0 mm 1 mps 764 mmHg 29%
    18:00 +8°C° 0 mm 1 mps 764 mmHg 34%
    19:00 +6°C° 0 mm 1 mps 764 mmHg 38%
    20:00 +4°C° 0 mm 1 mps 764 mmHg 43%
    21:00 +4°C° 0 mm 1 mps 765 mmHg 45%
    22:00 +2°C° 0 mm 2 mps 765 mmHg 46%
    23:00 +2°C° 0 mm 2 mps 765 mmHg 48%

    6 April, Monday

    Time Temperature Precipitation Wind Pressure Humidity
    00:00 +1°C° 0 mm 2 mps 765 mmHg 50%
    01:00 +1°C° 0 mm 2 mps 765 mmHg 51%
    02:00 +1°C° 0 mm 2 mps 766 mmHg 53%
    03:00 -1°C° 0 mm 3 mps 766 mmHg 55%
    04:00 -1°C° 0 mm 3 mps 766 mmHg 57%
    05:00 -1°C° 0 mm 3 mps 766 mmHg 59%
    06:00 0°C° 0 mm 3 mps 766 mmHg 55%
    07:00 +1°C° 0 mm 4 mps 766 mmHg 51%
    08:00 +3°C° 0 mm 4 mps 766 mmHg 46%
    09:00 +5°C° 0 mm 5 mps 766 mmHg 43%
    10:00 +7°C° 0 mm 5 mps 766 mmHg 40%
    11:00 +8°C° 0 mm 5 mps 766 mmHg 36%
    12:00 +9°C° 0 mm 5 mps 765 mmHg 35%
    13:00 +10°C° 0 mm 5 mps 765 mmHg 34%
    14:00 +12°C° 0 mm 5 mps 765 mmHg 32%
    15:00 +12°C° 0 mm 5 mps 765 mmHg 34%
    16:00 +12°C° 0 mm 4 mps 764 mmHg 36%
    17:00 +12°C° 0 mm 4 mps 764 mmHg 38%
    18:00 +10°C° 0 mm 4 mps 764 mmHg 43%
    19:00 +7°C° 0 mm 4 mps 764 mmHg 49%
    20:00 +7°C° 0 mm 3 mps 764 mmHg 54%
    21:00 +5°C° 0 mm 4 mps 764 mmHg 55%
    22:00 +5°C° 0 mm 4 mps 764 mmHg 55%
    23:00 +4°C° 0 mm 4 mps 764 mmHg 56%

    7 April, Tuesday

    Time Temperature Precipitation Wind Pressure Humidity
    00:00 +4°C° 0 mm 4 mps 764 mmHg 57%
    01:00 +3°C° 0 mm 4 mps 764 mmHg 57%
    02:00 +3°C° 0 mm 4 mps 764 mmHg 58%
    03:00 +2°C° 0 mm 3 mps 764 mmHg 60%
    04:00 +2°C° 0 mm 3 mps 764 mmHg 61%
    05:00 +1°C° 0 mm 3 mps 764 mmHg 63%
    06:00 +3°C° 0 mm 3 mps 764 mmHg 60%
    07:00 +4°C° 0 mm 3 mps 764 mmHg 57%
    08:00 +5°C° 0 mm 4 mps 764 mmHg 53%
    09:00 +8°C° 0 mm 3 mps 764 mmHg 49%
    10:00 +11°C° 0 mm 3 mps 764 mmHg 45%
    11:00 +13°C° 0 mm 3 mps 764 mmHg 41%
    12:00 +14°C° 0 mm 3 mps 764 mmHg 38%
    13:00 +17°C° 0 mm 3 mps 764 mmHg 36%
    14:00 +18°C° 0 mm 3 mps 764 mmHg 33%
    15:00 +18°C° 0 mm 3 mps 763 mmHg 34%
    16:00 +17°C° 0 mm 3 mps 763 mmHg 35%
    17:00 +17°C° 0 mm 3 mps 762 mmHg 36%
    18:00 +15°C° 0 mm 2 mps 762 mmHg 41%
    19:00 +13°C° 0 mm 2 mps 762 mmHg 45%
    20:00 +10°C° 0 mm 2 mps 762 mmHg 50%
    21:00 +9°C° 0 mm 2 mps 762 mmHg 52%
    22:00 +9°C° 0 mm 2 mps 762 mmHg 53%
    23:00 +9°C° 0 mm 1 mps 763 mmHg 55%
    Show more